Weather Roundup
Issued by NWS Chicago, IL

Home | Current Version | Previous Version | Text Only | Print | Product List | Glossary On
Versions: 1 2 3 4 5 6 7 8 9 10 11 12 13 14 15 16 17 18 19 20 21 22 23 24 25 26 27 28 29 30 31 32 33 34 35 36 37 38 39 40 41 42 43 44 45 46 47 48 49 50
000
NZUS59 KLOT 260110
HRRLOT

CHICAGO AREA WEATHER ROUNDUP
NATIONAL WEATHER SERVICE CHICAGO/ROMEOVILLE IL
800 PM CDT FRI JUL 25 2014

NOTE: "FAIR" INDICATES FEW OR NO CLOUDS BELOW 12,000 FEET WITH NO
SIGNIFICANT WEATHER AND/OR OBSTRUCTIONS TO VISIBILITY.

* THESE STATIONS ARE NOT UNDER NWS QUALITY CONTROL. THEY ALSO MAY NOT
  REPORT WEATHER SUCH AS PRECIPITATION OR FOG.

ILZ005-006-012>014-019>023-260200-
NORTHEAST ILLINOIS

CITY           SKY/WX    TMP DP  RH WIND       PRES   REMARKS
OHARE          PTCLDY    71  57  61 SW9       29.92S
MIDWAY         PTCLDY    73  59  61 S10       29.93S
AURORA         CLOUDY    70  59  68 S7        29.93F
LANSING*       CLEAR     69  59  69 S6        29.94S
JOLIET*        CLOUDY    70  58  66 SW6       29.94S
WAUKEGAN       CLEAR     69  59  70 SW7       29.91S
DUPAGE AIRPORT CLOUDY    70  59  68 S9        29.92F
WHEELING       CLEAR     73  59  61 S8        29.93S
KANKAKEE*      CLOUDY    70  61  74 S6        29.96R
MORRIS*        CLOUDY    71  61  72 S5        29.94R
LEWIS AIRPORT* CLOUDY    71  58  64 SW7       29.93S
NORTHERLY IS     N/A     72  57  59 S9          N/A
$$

WIZ051-052-058>065-066-070>072-260200-
SOUTHEAST WISCONSIN

CITY           SKY/WX    TMP DP  RH WIND       PRES   REMARKS
MILWAUKEE      MOCLDY    72  59  63 SW8       29.90S
KENOSHA*       CLOUDY    70  60  70 SW7       29.91S
RACINE*        CLOUDY    71  60  68 SW6       29.92S
BURLINGTON     CLOUDY    67  59  76 S7        29.92S
WAUKESHA       CLOUDY    68  59  73 SW8       29.92S
WEST BEND      CLOUDY    70  59  68 SW5       29.90S
$$

INZ001>003-010>013-019-020-260200-
NORTHWEST INDIANA

CITY           SKY/WX    TMP DP  RH WIND       PRES   REMARKS
GARY*          PTCLDY    73  59  60 S6        29.94S
MICHIGAN CITY* NOT AVBL
RENSSELAER*    NOT AVBL
VALPARAISO     CLEAR     68  59  73 S6        29.96S
$$

LMZ740>746-260200-
SOUTHERN LAKE MICHIGAN

STATION/POSITION TIME  SKY/WX   TEMP WIND        PRES    VSBY
                                AIR  DIR/SP/G
                 (UTC)          (F)  (DEG/KT/KT) (MB)    (MI)
HARRISON CRIB    0100            71  190/ 14/ 16   N/A
BURNHAM HARBOR   0100            72  190/  8/ 13   N/A
CALUMET HARBOR   0100            72  180/  6/  9 1012.3S
BURNS HARBOR     NOT AVBL
MICHIGAN CITY    0100            71  160/  9/ 12   N/A
$$

ABBREVIATIONS USED IN REMARKS
   TC - TEMPERATURE IN CELSIUS
  WCI - WIND CHILL INDEX
   HX - HEAT INDEX
  VSB - VISIBILITY
$$


USA.gov is the U.S. government's official web portal to all federal, state and local government web resources and services.